K8RRT Weather Reports


time (UTC)temp
C
wind
direction
speed
KPH
gust
KPH
rain 1hr
cm
rain 24hr
cm
rain mn
cm
humidity
%
barometer
mb
20260504160211 18 273 8.0 9.7 0.00 0.05 0.05 68 1008.4
20260504151139 16 216 4.8 8.0 0.00 0.05 0.05 74 1009.3
20260504150636 16 251 4.8 9.7 0.00 0.05 0.05 75 1009.3
20260504150133 16 248 8.0 9.7 0.00 0.05 0.05 76 1009.3
20260504141102 12 146 4.8 8.0 0.18 0.05 0.05 82 1009.7
20260504140558 12 237 4.8 4.8 0.13 0.03 0.03 82 1010.0
20260504130522 13 220 3.2 4.8 0.00 0.00 0.00 67 1009.4
20260504110410 7 143 3.2 3.2 0.00 0.00 0.00 85 1009.0
20260504100326 5 347 1.6 1.6 0.00 0.00 0.00 97 1009.3
20260504081720 6 85 1.6 1.6 0.00 0.00 0.00 97 1009.5
20260504081216 6 77 0.0 1.6 0.00 0.00 0.00 97 1009.7
20260504080712 7 98 0.0 0.0 0.00 0.00 0.00 97 1009.6
20260504080209 7 100 1.6 1.6 0.00 0.00 0.00 97 1010.0
20260504070137 8 94 1.6 3.2 0.00 0.00 0.00 93 1010.4
20260504050525 10 78 0.0 0.0 0.00 0.00 0.00 86 1011.0
20260504050022 10 5 0.0 0.0 0.00 0.00 0.00 86 1011.2
20260504045519 10 4 0.0 0.0 0.00 0.00 0.00 85 1011.1
20260504045015 10 3 0.0 0.0 0.00 0.00 0.00 85 1011.4
20260504044512 10 4 1.6 1.6 0.00 0.00 0.00 84 1011.1
20260504044009 9 268 0.0 0.0 0.00 0.00 0.00 84 1011.4
20260504043506 10 297 1.6 1.6 0.00 0.00 0.00 85 1011.5
20260504043004 10 314 1.6 1.6 0.00 0.00 0.00 84 1011.5
20260504042501 10 301 0.0 0.0 0.00 0.00 0.00 83 1011.4
20260504041957 10 219 0.0 0.0 0.00 0.00 0.00 84 1011.4
20260504041453 10 183 1.6 1.6 0.00 0.00 0.00 84 1011.6
20260504040949 10 142 3.2 3.2 0.00 0.00 0.00 83 1011.4
20260504040447 10 169 1.6 1.6 0.00 0.00 0.00 81 1011.5
20260504035943 10 209 1.6 1.6 0.00 0.00 0.00 81 1011.7
20260504035441 10 105 1.6 1.6 0.00 0.00 0.00 81 1011.3
20260504034937 10 194 1.6 1.6 0.00 0.00 0.00 77 1011.5
20260504034435 10 93 1.6 1.6 0.00 0.00 0.00 75 1011.5
20260504033932 10 101 1.6 1.6 0.00 0.00 0.00 75 1011.3
20260504033429 10 5 0.0 0.0 0.00 0.00 0.00 77 1011.4
20260504032926 10 340 1.6 1.6 0.00 0.00 0.00 77 1011.4
20260504032423 10 96 1.6 1.6 0.00 0.00 0.00 76 1011.6
20260504031920 10 262 0.0 0.0 0.00 0.00 0.00 75 1011.2
20260504031417 10 300 3.2 3.2 0.00 0.00 0.00 74 1011.8
20260504030914 10 265 0.0 0.0 0.00 0.00 0.00 73 1011.4
20260504030411 10 262 0.0 0.0 0.00 0.00 0.00 73 1011.2
20260504025906 10 284 0.0 0.0 0.00 0.00 0.00 74 1011.3
20260504025403 10 287 0.0 0.0 0.00 0.00 0.00 74 1011.3
20260504024900 10 173 1.6 1.6 0.00 0.00 0.00 72 1011.2
20260504024356 10 325 1.6 1.6 0.00 0.00 0.00 72 1011.5
20260504023854 10 193 0.0 1.6 0.00 0.00 0.00 72 1011.4
20260504023350 10 201 0.0 1.6 0.00 0.00 0.00 72 1011.5
20260504022845 10 185 1.6 1.6 0.00 0.00 0.00 72 1011.3
20260504022343 10 335 1.6 1.6 0.00 0.00 0.00 71 1011.4
20260504021839 10 146 1.6 3.2 0.00 0.00 0.00 69 1011.2
20260504021337 10 170 0.0 0.0 0.00 0.00 0.00 70 1011.0
20260504020834 10 171 0.0 0.0 0.00 0.00 0.00 68 1011.2
20260504020330 10 170 0.0 0.0 0.00 0.00 0.00 67 1010.8
20260504015826 10 167 0.0 1.6 0.00 0.00 0.00 67 1010.9
20260504015323 10 173 1.6 1.6 0.00 0.00 0.00 67 1010.9
20260504014819 10 187 0.0 0.0 0.00 0.00 0.00 68 1010.9
20260504014315 10 188 0.0 0.0 0.00 0.00 0.00 68 1010.9
20260504013813 10 188 0.0 1.6 0.00 0.00 0.00 67 1010.7
20260504013311 10 189 0.0 0.0 0.00 0.00 0.00 66 1010.9
20260504012807 10 176 1.6 1.6 0.00 0.00 0.00 63 1010.9
20260504012305 10 131 1.6 1.6 0.00 0.00 0.00 64 1010.9
20260504011803 11 139 0.0 0.0 0.00 0.00 0.00 64 1010.8
20260504011259 11 178 1.6 3.2 0.00 0.00 0.00 62 1010.6
20260504010754 11 163 0.0 0.0 0.00 0.00 0.00 62 1010.9
20260504010250 11 155 3.2 3.2 0.00 0.00 0.00 65 1010.9
20260504005747 11 157 1.6 1.6 0.00 0.00 0.00 60 1010.9
20260504005244 11 172 0.0 1.6 0.00 0.00 0.00 57 1010.8
20260504004742 11 181 0.0 0.0 0.00 0.00 0.00 57 1010.7
20260504004239 11 187 0.0 0.0 0.00 0.00 0.00 59 1011.0
20260504003735 11 186 0.0 0.0 0.00 0.00 0.00 57 1011.1
20260504003232 11 187 0.0 0.0 0.00 0.00 0.00 59 1010.8
20260504002729 12 186 0.0 0.0 0.00 0.00 0.00 57 1010.8
20260504002226 12 186 1.6 1.6 0.00 0.00 0.00 56 1010.6
20260504001724 12 153 1.6 1.6 0.00 0.00 0.00 55 1010.7
20260504001220 12 146 3.2 3.2 0.00 0.00 0.00 53 1010.8
20260504000717 13 168 1.6 3.2 0.00 0.00 0.00 52 1010.9
20260504000214 13 168 1.6 1.6 0.00 0.00 0.00 50 1011.0
20260503235713 14 162 1.6 1.6 0.00 0.00 0.00 47 1010.7
20260503235209 15 212 1.6 3.2 0.00 0.00 0.00 42 1010.8
20260503234707 15 229 1.6 1.6 0.00 0.00 0.00 42 1010.7
20260503234205 15 210 1.6 1.6 0.00 0.00 0.00 41 1010.7
20260503233701 15 225 3.2 4.8 0.00 0.00 0.00 39 1010.5
20260503233157 15 215 1.6 3.2 0.00 0.00 0.00 41 1010.7
20260503232654 15 259 0.0 1.6 0.00 0.00 0.00 42 1010.7
20260503232151 15 211 1.6 1.6 0.00 0.00 0.00 39 1010.9
20260503231650 16 249 3.2 3.2 0.00 0.00 0.00 39 1011.1
20260503231146 16 196 1.6 1.6 0.00 0.00 0.00 39 1011.2
20260503230642 16 256 3.2 4.8 0.00 0.00 0.00 38 1011.0
20260503230140 16 256 8.0 9.7 0.00 0.00 0.00 38 1011.2
20260503225637 16 301 4.8 4.8 0.00 0.00 0.00 37 1011.3
20260503225136 16 230 6.4 8.0 0.00 0.00 0.00 38 1011.2
20260503224634 17 238 9.7 12.9 0.00 0.00 0.00 36 1011.1
20260503224132 17 250 6.4 9.7 0.00 0.00 0.00 37 1011.4
20260503223630 17 258 4.8 4.8 0.00 0.00 0.00 36 1011.4
20260503223126 17 270 6.4 9.7 0.00 0.00 0.00 36 1011.5
20260503222623 17 255 3.2 3.2 0.00 0.00 0.00 38 1011.5
20260503222121 16 286 4.8 4.8 0.00 0.00 0.00 36 1011.4
20260503221619 17 289 4.8 4.8 0.00 0.00 0.00 36 1011.3
20260503221116 17 267 11.3 17.7 0.00 0.00 0.00 36 1011.5
20260503220613 17 242 4.8 8.0 0.00 0.00 0.00 38 1011.6
20260503220110 17 270 4.8 8.0 0.00 0.00 0.00 38 1011.4
20260503215607 17 241 9.7 11.3 0.00 0.00 0.00 36 1011.5
20260503215103 17 241 4.8 4.8 0.00 0.00 0.00 37 1011.4
20260503214602 17 297 4.8 4.8 0.00 0.00 0.00 38 1011.5
20260503214058 17 280 9.7 11.3 0.00 0.00 0.00 36 1011.6
20260503213557 17 300 0.0 1.6 0.00 0.00 0.00 38 1011.6
20260503213053 17 307 4.8 8.0 0.00 0.00 0.00 37 1011.8
20260503212550 17 246 16.1 20.9 0.00 0.00 0.00 34 1011.8
20260503212047 17 303 0.0 0.0 0.00 0.00 0.00 38 1011.6
20260503211545 17 248 9.7 12.9 0.00 0.00 0.00 36 1011.6
20260503211040 17 256 8.0 9.7 0.00 0.00 0.00 35 1011.7
20260503210537 17 268 6.4 11.3 0.00 0.00 0.00 38 1011.7
20260503210033 16 239 4.8 4.8 0.00 0.00 0.00 39 1011.9
20260503205530 17 295 4.8 4.8 0.00 0.00 0.00 38 1011.7
20260503205026 17 290 8.0 9.7 0.00 0.00 0.00 40 1011.9
20260503204523 17 268 1.6 1.6 0.00 0.00 0.00 34 1011.9
20260503204020 17 241 4.8 4.8 0.00 0.00 0.00 39 1012.2
20260503203517 17 265 8.0 9.7 0.00 0.00 0.00 39 1012.1
20260503203014 17 323 4.8 4.8 0.00 0.00 0.00 39 1012.3
20260503202512 17 167 1.6 4.8 0.00 0.00 0.00 42 1012.1
20260503202010 17 299 3.2 3.2 0.00 0.00 0.00 39 1012.3
20260503201508 16 300 3.2 3.2 0.00 0.00 0.00 38 1012.5
20260503201005 16 265 6.4 9.7 0.00 0.00 0.00 40 1012.5
20260503200501 17 264 9.7 12.9 0.00 0.00 0.00 38 1012.7
20260503195957 16 282 4.8 8.0 0.00 0.00 0.00 40 1012.5
20260503195455 16 324 4.8 8.0 0.00 0.00 0.00 39 1012.8
20260503194951 16 305 6.4 9.7 0.00 0.00 0.00 40 1012.8
20260503194449 16 324 4.8 4.8 0.00 0.00 0.00 37 1012.9
20260503193944 16 292 4.8 8.0 0.00 0.00 0.00 36 1013.1
20260503193439 16 280 6.4 8.0 0.00 0.00 0.00 40 1013.3
20260503192935 16 253 11.3 12.9 0.00 0.00 0.00 38 1013.4
20260503192432 16 202 6.4 9.7 0.00 0.00 0.00 42 1013.4
20260503191927 16 187 12.9 16.1 0.00 0.00 0.00 37 1013.3
20260503191425 15 5 1.6 3.2 0.00 0.00 0.00 41 1013.4
20260503190921 16 244 6.4 9.7 0.00 0.00 0.00 38 1013.7
20260503190419 16 227 9.7 12.9 0.00 0.00 0.00 40 1013.9
20260503185915 16 272 11.3 12.9 0.00 0.00 0.00 42 1013.9
20260503185413 16 256 6.4 8.0 0.00 0.00 0.00 38 1013.9
20260503184911 15 273 3.2 4.8 0.00 0.00 0.00 42 1014.0
20260503184408 16 334 6.4 8.0 0.00 0.00 0.00 40 1014.0
20260503183904 15 244 1.6 1.6 0.00 0.00 0.00 43 1014.4
20260503183401 15 240 9.7 12.9 0.00 0.00 0.00 41 1014.4
20260503182858 15 266 8.0 9.7 0.00 0.00 0.00 41 1014.4
20260503182357 15 282 6.4 9.7 0.00 0.00 0.00 45 1014.6
20260503181854 15 343 4.8 4.8 0.00 0.00 0.00 48 1014.5
20260503181351 15 263 6.4 8.0 0.00 0.00 0.00 43 1014.7
20260503180847 15 269 1.6 3.2 0.00 0.00 0.00 41 1014.7
20260503180345 15 224 8.0 9.7 0.00 0.00 0.00 40 1015.0
20260503175841 15 247 4.8 4.8 0.00 0.00 0.00 45 1014.8
20260503175340 15 230 3.2 4.8 0.00 0.00 0.00 41 1015.1
20260503174835 15 300 11.3 14.5 0.00 0.00 0.00 41 1015.0
20260503174334 15 255 4.8 4.8 0.00 0.00 0.00 42 1014.9
20260503173829 14 286 11.3 14.5 0.00 0.00 0.00 43 1015.1
20260503173325 13 301 6.4 8.0 0.00 0.00 0.00 42 1015.1
20260503172822 13 350 3.2 3.2 0.00 0.00 0.00 46 1015.2
20260503172320 13 336 4.8 8.0 0.00 0.00 0.00 42 1015.5
20260503171816 13 268 6.4 9.7 0.00 0.00 0.00 42 1015.5
20260503171313 14 153 4.8 8.0 0.00 0.00 0.00 42 1015.4
20260503170810 14 209 6.4 9.7 0.00 0.00 0.00 42 1015.6
20260503170306 13 297 4.8 4.8 0.00 0.00 0.00 45 1015.6